Simultaneous Nadir Overpasses (SNOs) Predictions

Prediction of SNOs between GOES-15 and TERRA Satellite Orbit:

Table of predicted SNOs for the next 14.0 days since TLE Epoch: 6/7/2015
Index Date Time (GOES-15) GOES-15 Lat,Lon TERRA Lat,Lon Distance(km) Time Diff (sec)
1 06/08/2015 19:19:47 -0.10,-134.78 -0.55,-132.74 232.43 80
2 06/09/2015 07:43:51 0.09,-134.76 -0.59,-137.92 359.71 80
3 06/11/2015 07:31:40 0.09,-134.67 -0.00,-134.96 34.04 80
4 06/13/2015 07:16:50 0.09,-134.57 0.65,-132.01 291.50 80
5 06/13/2015 19:40:45 -0.08,-134.54 0.49,-137.16 298.00 80
6 06/15/2015 19:25:54 -0.08,-134.44 -0.12,-134.20 26.84 80
7 06/17/2015 19:13:43 -0.09,-134.33 -0.73,-131.24 351.10 80
8 06/18/2015 07:37:47 0.08,-134.31 -0.40,-136.43 241.28 80
9 06/20/2015 07:22:56
